Change the Weather History Date:

Sunday, February 26, 2012

  Actual Average Record
Temperature  
Mean Temperature 62 °F 59 °F  
Max Temperature 68 °F 69 °F 88 °F (2002)
Min Temperature 56 °F 49 °F 41 °F (2011)
Degree Days  
Heating Degree Days 3 6  
Month to date heating degree days 114 192  
Since 1 July heating degree days 658 909  
Cooling Degree Days 0 0  
Month to date cooling degree days 5 0  
Year to date cooling degree days 30 4  
Growing Degree Days 10 (Base 50)    
Moisture  
Dew Point 46 °F    
Average Humidity 61    
Maximum Humidity 77    
Minimum Humidity 45    
Precipitation  
Precipitation 0.00 in 0.11 in 0.85 in (2004)
Month to date precipitation 0.19 3.07  
Year to date precipitation 1.25 6.10  
Since 1 July precipitation 3.92  
Snow  
Snow 0.00 in - - ()
Month to date snowfall 0.0  
Year to date snowfall 0.0  
Since 1 July snowfall 0.0  
Snow Depth 0.00 in    
Sea Level Pressure  
Sea Level Pressure 29.92 in    
Wind  
Wind Speed 3 mph (South)    
Max Wind Speed 10 mph    
Max Gust Speed 16 mph    
Visibility 9 miles    
Events      
T = Trace of Precipitation, MM = Missing Value Source: NWS Daily Summary

Daily Weather History Graph

Daily Weather History Graph

Search for Another Location

Airport or City:

Trip Planner

Search our weather history database for the weather conditions in past years. The results will help you decide how hot, cold, wet, or windy it might be!

Date:

Astronomy

Feb. 26, 2012 Rise Set
Actual Time 6:24 AM PST 5:45 PM PST
Civil Twilight 5:59 AM PST 6:10 PM PST
Nautical Twilight 5:30 AM PST 6:39 PM PST
Astronomical Twilight 5:01 AM PST 7:08 PM PST
Moon 8:38 AM PST (2/26) 10:29 PM PST (2/26)
Length of Visible Light 12h 11m
Length of Day
11h 20m
Waxing Crescent, 21% of the Moon is Illuminated
Feb 26
Waxing Crescent
Feb 29
First Quarter
Mar 8
Full
Mar 14
Last Quarter
Mar 22
New

Hourly Weather History & Observations

Time (PST) Temp. Dew Point Humidity Pressure Visibility Wind Dir Wind Speed Gust Speed Precip Events Conditions
12:53 AM 57.0 °F 48.9 °F 74% 29.96 in 6.0 mi Calm Calm - N/A   Haze
2:53 AM 55.9 °F 48.0 °F 75% 29.93 in 6.0 mi South 4.6 mph - N/A   Haze
3:53 AM 55.9 °F 48.0 °F 75% 29.93 in 6.0 mi Calm Calm - N/A   Haze
5:53 AM 55.9 °F 46.9 °F 72% 29.93 in 8.0 mi South 4.6 mph - N/A   Overcast
6:08 AM 55.4 °F 46.4 °F 72% 29.94 in 10.0 mi Calm Calm - N/A   Overcast
6:53 AM 55.9 °F 46.9 °F 72% 29.93 in 8.0 mi Variable 4.6 mph - N/A   Overcast
7:53 AM 55.9 °F 46.0 °F 69% 29.97 in 9.0 mi SE 3.5 mph - N/A   Overcast
8:53 AM 57.9 °F 46.0 °F 65% 29.96 in 10.0 mi South 4.6 mph - N/A   Mostly Cloudy
9:29 AM 59.0 °F 46.4 °F 63% 29.96 in 10.0 mi SSW 4.6 mph - N/A   Scattered Clouds
9:53 AM 61.0 °F 46.9 °F 60% 29.96 in 10.0 mi South 5.8 mph - N/A   Mostly Cloudy
10:11 AM 60.8 °F 46.4 °F 59% 29.96 in 10.0 mi Calm Calm - N/A   Scattered Clouds
10:53 AM 63.0 °F 46.0 °F 54% 29.95 in 10.0 mi Variable 3.5 mph - N/A   Scattered Clouds
11:53 AM 66.0 °F 45.0 °F 47% 29.93 in 10.0 mi Calm Calm - N/A   Clear
12:53 PM 66.9 °F 46.9 °F 49% 29.89 in 10.0 mi Variable 5.8 mph - N/A   Clear
1:53 PM 66.0 °F 46.0 °F 48% 29.87 in 10.0 mi Calm Calm - N/A   Clear
2:53 PM 66.9 °F 46.9 °F 49% 29.86 in 10.0 mi SSW 9.2 mph - N/A   Clear
3:53 PM 64.9 °F 48.0 °F 54% 29.85 in 10.0 mi SSW 9.2 mph - N/A   Clear
4:53 PM 62.1 °F 46.9 °F 58% 29.86 in 10.0 mi SW 9.2 mph - N/A   Clear
5:53 PM 59.0 °F 46.9 °F 64% 29.88 in 10.0 mi SSW 9.2 mph - N/A   Partly Cloudy
6:14 PM 59.0 °F 46.4 °F 63% 29.89 in 10.0 mi SSW 8.1 mph - N/A   Mostly Cloudy
6:53 PM 59.0 °F 46.9 °F 64% 29.89 in 10.0 mi South 8.1 mph - N/A   Overcast
7:53 PM 57.9 °F 46.0 °F 65% 29.91 in 10.0 mi South 9.2 mph - N/A   Overcast
8:32 PM 57.2 °F 44.6 °F 63% 29.92 in 10.0 mi South 8.1 mph - N/A   Overcast
8:53 PM 57.9 °F 45.0 °F 62% 29.92 in 10.0 mi South 5.8 mph - N/A   Overcast
9:53 PM 59.0 °F 45.0 °F 60% 29.92 in 10.0 mi SSE 5.8 mph - N/A   Overcast
10:53 PM 59.0 °F 45.0 °F 60% 29.91 in 10.0 mi SE 3.5 mph - N/A   Overcast
11:53 PM 57.9 °F 46.0 °F 65% 29.91 in 10.0 mi ESE 5.8 mph - N/A   Overcast